This is the latest recevied weather packets stored in our database for station/object K4ROM-1. If no packets are shown the sender has not sent any weather packets the latest 10 day(s).
| Time | Temp. | Humidity | Pressure | Rain* | Wind** | Luminosity | Snow |
|---|---|---|---|---|---|---|---|
| 1777806603 | 3.89° C | 91% | 1020.2 hPa | 0 mm | 0 m/s | - | - |
| 1777806003 | 3.33° C | 90% | 1020 hPa | 0 mm | 0 m/s | - | - |
| 1777805403 | 3.33° C | 91% | 1019.8 hPa | 0 mm | 0 m/s | - | - |
| 1777804804 | 3.33° C | 91% | 1019.6 hPa | 0 mm | 0 m/s | - | - |
| 1777804203 | 3.33° C | 90% | 1019.3 hPa | 0 mm | 0 m/s | - | - |
| 1777803603 | 3.33° C | 91% | 1019.2 hPa | 0 mm | 0 m/s | - | - |
| 1777803003 | 3.33° C | 90% | 1019.2 hPa | 0 mm | 0 m/s | - | - |
| 1777802403 | 3.89° C | 89% | 1019 hPa | 0 mm | 0 m/s | - | - |
| 1777801802 | 3.89° C | 88% | 1018.9 hPa | 0 mm | 0.45 m/s, 243° | - | - |
| 1777801203 | 4.44° C | 86% | 1018.8 hPa | 0 mm | 0 m/s | - | - |
| 1777800603 | 5° C | 84% | 1018.6 hPa | 0 mm | 0 m/s | - | - |
| 1777800003 | 5.56° C | 81% | 1018.5 hPa | 0 mm | 0 m/s | - | - |
| 1777799403 | 6.11° C | 77% | 1018.5 hPa | 0 mm | 0 m/s | - | - |
| 1777798803 | 6.11° C | 74% | 1018.4 hPa | 0 mm | 0 m/s | - | - |
| 1777798202 | 6.11° C | 73% | 1018.3 hPa | 0 mm | 0 m/s | - | - |
| 1777797603 | 6.11° C | 74% | 1018.3 hPa | 0 mm | 0 m/s | - | - |
| 1777797003 | 6.67° C | 74% | 1018 hPa | 0 mm | 0.45 m/s, 317° | - | - |
| 1777796403 | 6.67° C | 74% | 1018.2 hPa | 0 mm | 0.89 m/s, 59° | - | - |
| 1777795803 | 6.67° C | 74% | 1018.1 hPa | 0 mm | 0 m/s | - | - |
| 1777795203 | 6.67° C | 74% | 1017.9 hPa | 0 mm | 0.89 m/s, 333° | - | - |
| 1777794603 | 6.11° C | 76% | 1017.8 hPa | 0 mm | 0 m/s | - | - |
| 1777794003 | 6.11° C | 79% | 1017.8 hPa | 0 mm | 0 m/s | - | - |
| 1777793403 | 6.11° C | 79% | 1017.6 hPa | 0 mm | 0 m/s | - | - |
| 1777792803 | 6.11° C | 83% | 1017.3 hPa | 0 mm | 0 m/s | - | - |
| 1777792202 | 5.56° C | 84% | 1017.4 hPa | 0 mm | 0 m/s | - | - |
* Rain latest hour (hover to see other rain measurements)
** Current wind speed in m/s (hover to see current wind gust speed)